| time (UTC) | temp C | wind direction | speed KPH | gust KPH | rain 1hr cm | rain 24hr cm | rain mn cm | humidity % | barometer mb |
| 20260504050711 | 25 | 180 | 0.0 | 0.0 | 0.00 | 0.69 | 0.00 | 99 | 1021.3 |
| 20260504040117 | 23 | 113 | 0.0 | 0.0 | 0.00 | 0.69 | 0.00 | 99 | 1021.0 |
| 20260504034056 | 23 | 248 | 0.0 | 0.0 | 0.00 | 0.69 | 0.00 | 99 | 1021.0 |
| 20260504030500 | 23 | 90 | 0.0 | 20.9 | 0.00 | 0.66 | 0.00 | 99 | 1021.0 |
| 20260504024510 | 25 | 68 | 17.7 | 17.7 | 0.00 | 0.66 | 0.00 | 99 | 1020.7 |
| 20260504014324 | 25 | 203 | 6.4 | 29.0 | 0.00 | 0.46 | 0.00 | 99 | 1020.3 |
| 20260504011823 | 25 | 225 | 17.7 | 17.7 | 0.00 | 0.20 | 0.00 | 99 | 1020.0 |
| 20260504010757 | 26 | 225 | 17.7 | 20.9 | 0.00 | 0.20 | 0.00 | 99 | 1020.0 |
| 20260503234545 | 26 | 315 | 17.7 | 35.4 | 0.00 | 0.20 | 0.00 | 99 | 1018.6 |
| 20260503233538 | 27 | 248 | 35.4 | 35.4 | 0.00 | 0.20 | 0.00 | 98 | 1018.6 |
| 20260503233034 | 27 | 180 | 29.0 | 29.0 | 0.00 | 0.20 | 0.00 | 97 | 1018.6 |
| 20260503231528 | 27 | 338 | 29.0 | 46.7 | 0.00 | 0.20 | 0.00 | 97 | 1018.6 |
| 20260503230010 | 27 | 293 | 29.0 | 29.0 | 0.00 | 0.20 | 0.00 | 96 | 1018.6 |
| 20260503214839 | 27 | 315 | 17.7 | 35.4 | 0.00 | 0.20 | 0.00 | 92 | 1019.0 |
| 20260503210325 | 28 | 23 | 17.7 | 40.2 | 0.00 | 0.20 | 0.00 | 88 | 1019.0 |
| 20260503205240 | 30 | 203 | 11.3 | 46.7 | 0.00 | 0.20 | 0.00 | 87 | 1019.3 |
| 20260503204736 | 30 | 315 | 35.4 | 35.4 | 0.00 | 0.20 | 0.00 | 87 | 1019.3 |
| 20260503201900 | 28 | 293 | 57.9 | 57.9 | 0.00 | 0.20 | 0.00 | 91 | 1019.6 |
| 20260503201412 | 28 | 293 | 20.9 | 69.2 | 0.00 | 0.20 | 0.00 | 91 | 1019.6 |
| 20260503200343 | 28 | 315 | 29.0 | 40.2 | 0.00 | 0.18 | 0.00 | 88 | 1019.6 |
| 20260503190813 | 31 | 270 | 35.4 | 35.4 | 0.00 | 0.18 | 0.00 | 86 | 1020.3 |
| 20260503174355 | 30 | 203 | 11.3 | 17.7 | 0.00 | 0.08 | 0.00 | 85 | 1021.7 |
| 20260503150441 | 28 | 293 | 11.3 | 20.9 | 0.00 | 0.08 | 0.00 | 88 | 1021.3 |